Regional Weather Roundup
Issued by NWS

Home | Current Version | Previous Version | Graphics & Text | Print | Product List | Glossary On
Versions: 1 2 3 4 5 6 7 8 9 10 11 12 13 14 15 16 17 18 19 20 21 22 23 24 25 26 27 28 29 30 31 32 33 34 35 36 37 38 39 40 41 42 43 44 45 46 47 48 49 50
000
ASUS45 KPSR 292310
RWRAZ

ARIZONA HOURLY REGIONAL WEATHER ROUNDUP
NATIONAL WEATHER SERVICE PHOENIX AZ
400 PM MST WED MAR 29 2017

NOTE: FAIR INDICATES FEW OR NO CLOUDS BELOW 12,000 FEET WITH NO
SIGNIFICANT WEATHER AND/OR OBSTRUCTIONS TO VISIBILITY.

AZZ001>003-036-300000-
NORTHWEST ARIZONA

CITY           SKY/WX    TMP DP  RH WIND       PRES   REMARKS
BULLHEAD CITY  SUNNY     81  21  11 N16       29.96F
KINGMAN        SUNNY     73 -10   3 N10       30.06F
$$

AZZ004>008-015-016-018-300000-
NORTH CENTRAL ARIZONA

CITY           SKY/WX    TMP DP  RH WIND       PRES   REMARKS
GRAND CANYON   SUNNY     60  16  18 CALM      30.15S
WILLIAMS       SUNNY     63  16  16 N13       30.14S
PRESCOTT       SUNNY     69  19  15 NW10G17   30.06F
FLAGSTAFF      SUNNY     61   7  11 VRB5      30.12S
PAYSON         SUNNY     68  19  15 W15G22    30.07F
PAGE           SUNNY     69  17  13 E6        30.04F
$$

AZZ009>014-017-300000-
NORTHEAST ARIZONA

CITY           SKY/WX    TMP DP  RH WIND       PRES   REMARKS
WINSLOW        SUNNY     70  13  11 NW18G29   30.04F
SAINT JOHNS    SUNNY     65  16  15 NW17      30.02F
WINDOW ROCK    SUNNY     60  21  22 NW14      30.05R
SHOW LOW       SUNNY     59  18  20 N16G22    30.10S
$$

AZZ023-300000-
GREATER PHOENIX AREA

CITY           SKY/WX    TMP DP  RH WIND       PRES   REMARKS
PHOENIX        PTSUNNY   83  24  11 W15G21    29.88F
BUCKEYE        SUNNY     84  23  10 W9        29.91F
GLENDALE       MOSUNNY   84  23  10 SW10G17   29.90F
LUKE AFB       SUNNY     85  23  10 W9        29.88F
DEER VALLEY    SUNNY     83  24  11 W17       29.88F
SCOTTSDALE     SUNNY     83  22  10 SW13G18   29.90F
MESA-FALCON    MOSUNNY  N/A N/A N/A W17G29    29.88F
MESA-GATEWAY   MOSUNNY   81  28  15 NW8G16    29.92F
CHANDLER       SUNNY     82  25  12 W16       29.91F
$$

AZZ027-028-300000-
SOUTHWEST MARICOPA COUNTY AND PINAL COUNTY

CITY           SKY/WX    TMP DP  RH WIND       PRES   REMARKS
CASA GRANDE    NOT AVBL
GILA BEND      MOSUNNY   84  21   9 W9G17     29.91F
$$

AZZ503-504-507>509-300000-
SOUTHEAST ARIZONA

CITY           SKY/WX    TMP DP  RH WIND       PRES   REMARKS
TUCSON         SUNNY     78  25  14 N12       29.98S
DAVIS-MONTHAN  SUNNY     76  26  15 NW9       29.97F
RYAN FIELD     SUNNY     75  25  15 NW9G17    29.98F
NOGALES        SUNNY     75  19  12 NW8G17    30.00F
SIERRA VISTA   SUNNY     70  20  14 N12       30.04F
DOUGLAS        SUNNY     73  24  16 N16       30.00S
SAFFORD        SUNNY     74  28  18 W9        29.93F
$$

AZZ020-021-025-026-031-300000-
SOUTHWEST ARIZONA

CITY           SKY/WX    TMP DP  RH WIND       PRES   REMARKS
YUMA           MOSUNNY   87  18   8 N8        29.92F
$$

CAZ031-033-041-043-047-048-061-300000-
SOUTHERN CALIFORNIA

CITY           SKY/WX    TMP DP  RH WIND       PRES   REMARKS
DOWNTOWN L.A.  SUNNY     78  34  20 W7        30.00S
L.A. AIRPORT   MOSUNNY   73  45  36 W12       30.01S
SAN DIEGO      MOSUNNY   75  36  24 NW12      30.02F
BURBANK        SUNNY     81  32  17 S8        30.00S
ONTARIO        MOSUNNY   84  29  13 W12       30.00F
RIVERSIDE      SUNNY     84  36  18 W13       29.99F
PALM SPRINGS   SUNNY     90  23   9 VRB3      29.94F
EL CENTRO NAS  MOSUNNY   88  15   6 NW6       29.94F
IMPERIAL       SUNNY     88  26  10 N6        29.92F
BLYTHE         SUNNY     86  20   9 NW8       29.94F
NEEDLES        SUNNY     85  20   9 N14       29.96F
$$

NVZ020-UTZ003-300000-
SOUTHERN NEVADA-UTAH

CITY           SKY/WX    TMP DP  RH WIND       PRES   REMARKS
LAS VEGAS      MOSUNNY   76  19  11 NE7       30.03F
SALT LAKE CITY MOSUNNY   57  31  37 NW7       30.14F
$$

NMZ009-TXZ055-300000-
NEW MEXICO-WEST TEXAS

CITY           SKY/WX    TMP DP  RH WIND       PRES   REMARKS
ALBUQUERQUE    CLOUDY    60  32  34 NW9       29.97S
EL PASO        PTSUNNY   66  29  24 NE9       29.98R
$$


........................KEY........................
SKY/WX - SKY CONDITION/WEATHER
TMP    - TEMPERATURE IN FAHRENHEIT
DP     - DEW POINT IN FAHRENHEIT
RH     - RELATIVE HUMIDITY IN PERCENT
WIND   - DIRECTION AND SPEED IN MILES PER HOUR (MPH)
VRB    - VARIABLE WIND DIRECTION
PRES   - MEAN SEA LEVEL PRESSURE IN INCHES OF MERCURY
         F - FALLING PRESSURE   R - RISING PRESSURE
         S - STEADY PRESSURE
VSB    - VISIBILITY IN MILES
HX     - HEAT INDEX IN FAHRENHEIT
WCI    - WIND CHILL INDEX IN FAHRENHEIT
TC     - TEMPERATURE IN CELSIUS WHICH IS ALSO KNOWN AS
         TEMPERATURE IN CENTIGRADE
AFB    - AIR FORCE BASE
         LUKE AFB IS LUKE AIR FORCE BASE
         DAVIS-MONTHAN IS DAVIS-MONTHAN AIR FORCE BASE
NAS    - NAVAL AIR STATION
         EL CENTRO NAS IS EL CENTRO NAVAL AIR STATION
N/A    - NOT AVAILABLE




USA.gov is the U.S. government's official web portal to all federal, state and local government web resources and services.